Location: Unspecified
(41.1850°N, 73.2650°W)
Time: 17:26:30
(UTC+00:00)

Cosmos 1726 Rocket - Visible Passes

Search period start: 14 March 2026 00:00
Search period end: 24 March 2026 00:00
Orbit: 555 x 660 km, 82.5° (Epoch: 13 March)

Date Brightness Start Highest point End Pass type
(mag) Time Alt. Az. Time Alt. Az. Time Alt. Az.
14 Mar 4.4 10:30:36 10° S 10:35:02 59° E 10:39:36 10° NNE visible
16 Mar 6.8 09:22:46 10° ESE 09:25:31 16° E 09:28:18 10° NE visible
17 Mar 6.0 09:35:20 10° SE 09:39:06 26° E 09:42:57 10° NNE visible
18 Mar 5.0 09:48:27 10° SSE 09:52:47 44° E 09:57:11 10° NNE visible
19 Mar 3.9 10:01:57 10° S 10:06:31 76° E 10:11:10 10° N visible
20 Mar 6.9 08:41:35 10° ESE 08:43:20 12° E 08:45:06 10° ENE visible
20 Mar 3.7 10:15:47 10° SSW 10:20:20 63° W 10:24:58 10° N visible
21 Mar 6.3 08:53:33 10° SE 08:56:54 20° E 09:00:16 10° NE visible
22 Mar 5.4 09:06:24 10° SSE 09:10:31 33° E 09:14:41 10° NNE visible
23 Mar 4.4 09:19:43 10° S 09:24:13 56° E 09:28:47 10° NNE visible
